RYR9847 EPLL-EGBB

Flight info

Callsign RYR9847
Flight time N/A
Altitude 38000
Route BAXIS DCT INDIG DCT SUBIX DCT POVEL DCT GALSO Q63 ERING L179 LAM L610 HEMEL
Aircraft B38M/M-SADE3FGILRWY/SB1

Departure

Time 2026-04-19 11:26
Airport Łódź Władysław Reymont Airport (EPLL)

Arrival

Time N/A
Airport Birmingham Airport (EGBB)
Time Latitude Longitude Altitude Speed Heading
2026-04-19 10:58 51.72619 19.40146 617 ft 0 kts 340°
2026-04-19 11:20 51.72618 19.40147 628 ft 2 kts 340°
2026-04-19 11:20 51.72594 19.40156 629 ft 4 kts 358°
2026-04-19 11:21 51.72569 19.40148 628 ft 4 kts 36°
2026-04-19 11:21 51.72558 19.40128 621 ft 0 kts 68°
2026-04-19 11:24 51.72565 19.40156 625 ft 9 kts 69°
2026-04-19 11:24 51.72587 19.40298 617 ft 16 kts 88°
2026-04-19 11:24 51.72573 19.40414 626 ft 7 kts 134°
2026-04-19 11:24 51.72522 19.40508 626 ft 13 kts 133°
2026-04-19 11:25 51.72473 19.40549 623 ft 8 kts 161°
2026-04-19 11:25 51.72405 19.40585 621 ft 12 kts 161°
2026-04-19 11:25 51.72355 19.40604 620 ft 0 kts 212°
2026-04-19 11:25 51.72351 19.40571 621 ft 10 kts 258°
2026-04-19 11:26 51.72266 19.40176 620 ft 78 kts 250°
2026-04-19 11:26 51.71995 19.38933 591 ft 153 kts 250°
2026-04-19 11:26 51.71579 19.37140 1050 ft 173 kts 250°
2026-04-19 11:26 51.71197 19.35354 2069 ft 171 kts 251°
2026-04-19 11:27 51.70796 19.33536 3068 ft 172 kts 252°
2026-04-19 11:27 51.70387 19.31689 4011 ft 178 kts 252°
2026-04-19 11:27 51.69967 19.29797 4939 ft 181 kts 252°
2026-04-19 11:27 51.69781 19.27711 5489 ft 201 kts 281°
2026-04-19 11:28 51.70356 19.25548 6028 ft 222 kts 307°
2026-04-19 11:28 51.71348 19.23472 6657 ft 244 kts 309°
2026-04-19 11:28 51.72438 19.21239 7330 ft 263 kts 309°
2026-04-19 11:28 51.73610 19.18869 8127 ft 274 kts 309°
2026-04-19 11:29 51.74803 19.16472 9255 ft 275 kts 309°
2026-04-19 11:29 51.76017 19.14050 10228 ft 281 kts 309°
2026-04-19 11:29 51.77280 19.11531 10843 ft 298 kts 309°
2026-04-19 11:29 51.78494 19.08762 11393 ft 315 kts 295°
2026-04-19 11:30 51.79059 19.05320 12180 ft 323 kts 279°
2026-04-19 11:30 51.79415 19.01707 13049 ft 327 kts 280°
2026-04-19 11:30 51.79771 18.98066 13938 ft 331 kts 279°
2026-04-19 11:30 51.80121 18.94371 14718 ft 334 kts 279°
2026-04-19 11:31 51.80469 18.90641 15506 ft 337 kts 279°
2026-04-19 11:31 51.80830 18.86878 16255 ft 340 kts 283°
2026-04-19 11:31 51.81559 18.83234 16986 ft 342 kts 291°
2026-04-19 11:31 51.82369 18.79595 17718 ft 346 kts 291°
2026-04-19 11:32 51.83182 18.75921 18419 ft 349 kts 291°
2026-04-19 11:32 51.84004 18.72202 19031 ft 352 kts 291°
2026-04-19 11:32 51.84831 18.68456 19654 ft 355 kts 291°
2026-04-19 11:32 51.85660 18.64686 20272 ft 358 kts 291°
2026-04-19 11:33 51.86496 18.60882 20888 ft 361 kts 291°
2026-04-19 11:33 51.87340 18.57035 21479 ft 364 kts 291°
2026-04-19 11:33 51.88186 18.53170 22066 ft 366 kts 291°
2026-04-19 11:33 51.89040 18.49265 22655 ft 369 kts 291°
2026-04-19 11:34 51.89896 18.45336 23230 ft 372 kts 291°
2026-04-19 11:34 51.90467 18.42714 23595 ft 374 kts 291°
2026-04-19 11:34 51.91628 18.37371 24223 ft 377 kts 291°
2026-04-19 11:34 51.92205 18.34711 24555 ft 378 kts 291°
2026-04-19 11:35 51.93077 18.30685 25040 ft 380 kts 290°
2026-04-19 11:35 51.93952 18.26639 25506 ft 382 kts 290°
2026-04-19 11:35 51.94830 18.22567 25963 ft 383 kts 290°
2026-04-19 11:35 51.95712 18.18473 26417 ft 385 kts 290°
2026-04-19 11:36 51.96594 18.14364 26871 ft 387 kts 290°
2026-04-19 11:36 51.97481 18.10229 27302 ft 389 kts 290°
2026-04-19 11:36 51.98370 18.06075 27725 ft 391 kts 290°
2026-04-19 11:36 51.99264 18.01895 28144 ft 393 kts 290°
2026-04-19 11:37 51.99963 17.97607 28561 ft 395 kts 282°
2026-04-19 11:37 52.00522 17.93228 28972 ft 397 kts 283°
2026-04-19 11:37 52.01084 17.88835 29350 ft 399 kts 283°
2026-04-19 11:37 52.01645 17.84412 29752 ft 401 kts 282°
2026-04-19 11:38 52.02206 17.79966 30124 ft 403 kts 282°
2026-04-19 11:38 52.02767 17.75506 30448 ft 404 kts 282°
2026-04-19 11:38 52.03328 17.71026 30750 ft 406 kts 282°
2026-04-19 11:38 52.03890 17.66520 31064 ft 408 kts 282°
2026-04-19 11:39 52.04454 17.61989 31373 ft 410 kts 282°
2026-04-19 11:39 52.05017 17.57447 31665 ft 412 kts 282°
2026-04-19 11:39 52.05582 17.52875 31957 ft 414 kts 282°
2026-04-19 11:39 52.06148 17.48277 32248 ft 416 kts 282°
2026-04-19 11:40 52.06714 17.43665 32594 ft 416 kts 282°
2026-04-19 11:40 52.07277 17.39067 32992 ft 415 kts 282°
2026-04-19 11:40 52.07837 17.34469 33381 ft 414 kts 282°
2026-04-19 11:40 52.08394 17.29880 33771 ft 413 kts 282°
2026-04-19 11:41 52.08949 17.25301 34127 ft 413 kts 282°
2026-04-19 11:41 52.09501 17.20723 34409 ft 413 kts 282°
2026-04-19 11:41 52.10052 17.16143 34659 ft 414 kts 282°
2026-04-19 11:41 52.10603 17.11542 34905 ft 415 kts 281°
2026-04-19 11:42 52.11153 17.06938 35158 ft 415 kts 281°
2026-04-19 11:42 52.11702 17.02318 35408 ft 416 kts 281°
2026-04-19 11:42 52.12243 16.97756 35634 ft 417 kts 281°
2026-04-19 11:42 52.12791 16.93114 35888 ft 418 kts 281°
2026-04-19 11:43 52.13338 16.88466 36117 ft 418 kts 281°
2026-04-19 11:43 52.13885 16.83805 36330 ft 419 kts 281°
2026-04-19 11:43 52.14430 16.79139 36555 ft 420 kts 281°
2026-04-19 11:43 52.14975 16.74463 36784 ft 421 kts 281°
2026-04-19 11:44 52.15517 16.69787 36990 ft 421 kts 281°
2026-04-19 11:44 52.16060 16.65089 37196 ft 422 kts 281°
2026-04-19 11:44 52.16601 16.60391 37389 ft 423 kts 281°
2026-04-19 11:44 52.17142 16.55679 37591 ft 423 kts 281°
2026-04-19 11:45 52.17681 16.50964 37775 ft 424 kts 281°
2026-04-19 11:45 52.18219 16.46241 37961 ft 424 kts 281°
2026-04-19 11:45 52.18756 16.41507 38007 ft 426 kts 281°
2026-04-19 11:46 52.19823 16.32048 37988 ft 424 kts 281°
2026-04-19 11:46 52.20882 16.22585 37990 ft 424 kts 281°
2026-04-19 11:47 52.21935 16.13113 37991 ft 425 kts 280°
2026-04-19 11:47 52.22973 16.03703 37992 ft 425 kts 280°
2026-04-19 11:48 52.24010 15.94217 37991 ft 425 kts 280°
2026-04-19 11:48 52.25041 15.84722 37991 ft 425 kts 280°
2026-04-19 11:49 52.26065 15.75217 37991 ft 425 kts 280°
2026-04-19 11:49 52.27081 15.65710 37992 ft 426 kts 280°
2026-04-19 11:50 52.28090 15.56185 37991 ft 426 kts 279°
2026-04-19 11:50 52.29093 15.46647 37987 ft 426 kts 279°
2026-04-19 11:51 52.30088 15.37105 37981 ft 426 kts 279°
2026-04-19 11:51 52.31077 15.27551 37982 ft 427 kts 279°
2026-04-19 11:52 52.32058 15.17988 37975 ft 427 kts 279°
2026-04-19 11:52 52.33031 15.08419 37977 ft 427 kts 279°
2026-04-19 11:53 52.33998 14.98832 38054 ft 428 kts 278°
2026-04-19 11:53 52.34964 14.89188 37968 ft 430 kts 278°
2026-04-19 11:54 52.35926 14.79524 37978 ft 431 kts 278°
2026-04-19 11:54 52.36881 14.69849 37972 ft 431 kts 278°
2026-04-19 11:55 52.37814 14.60169 37972 ft 431 kts 275°
2026-04-19 11:55 52.37779 14.55336 37973 ft 428 kts 263°
2026-04-19 11:55 52.37522 14.50473 37964 ft 430 kts 265°
2026-04-19 11:56 52.37049 14.40693 37968 ft 431 kts 265°
2026-04-19 11:56 52.36539 14.30936 37968 ft 431 kts 265°
2026-04-19 11:57 52.36016 14.21160 37967 ft 431 kts 265°
2026-04-19 11:57 52.35486 14.11393 37965 ft 431 kts 264°
2026-04-19 11:58 52.35058 14.03616 37965 ft 431 kts 264°